FW8858 Weather Reports


Display with metric or nautical units.
time (UTC)temp
F
wind
direction
speed
MPH
gust
MPH
rain 1hr
in
rain 24hr
in
rain mn
in
humidity
%
barometer
mb
20260906040048 61 0 0.0 2.0 0.00 0.00 0.00 93 1013.4
20260906035524 61 0 0.0 1.0 0.00 0.00 0.00 93 1013.5
20260906035024 61 0 0.0 2.0 0.00 0.00 0.00 93 1013.6
20260906034559 61 0 0.0 2.0 0.00 0.00 0.00 93 1013.4
20260906034028 61 79 1.0 2.0 0.00 0.00 0.00 93 1013.3
20260906033524 61 0 0.0 2.0 0.00 0.00 0.00 93 1013.2
20260906033046 61 0 0.0 1.0 0.00 0.00 0.00 93 1013.2
20260906032523 61 0 0.0 0.0 0.00 0.00 0.00 93 1013.2
20260906032024 61 0 0.0 2.0 0.00 0.00 0.00 93 1013.3
20260906031549 61 0 0.0 2.0 0.00 0.00 0.00 92 1013.2
20260906031024 61 0 0.0 2.0 0.00 0.00 0.00 92 1013.2
20260906030526 61 0 0.0 2.0 0.00 0.00 0.00 92 1013.2
20260906030046 62 0 0.0 2.0 0.00 0.00 0.00 92 1013.2
20260906025525 62 0 0.0 2.0 0.00 0.00 0.00 92 1013.2
20260906025024 62 78 0.0 2.0 0.00 0.00 0.00 92 1013.2
20260906024547 62 0 0.0 0.0 0.00 0.00 0.00 91 1013.2
20260906024026 62 0 0.0 0.0 0.00 0.00 0.00 91 1013.2
20260906023524 62 0 0.0 0.0 0.00 0.00 0.00 92 1013.2
20260906023045 62 0 0.0 0.0 0.00 0.00 0.00 91 1013.1
20260906022528 62 0 0.0 2.0 0.00 0.00 0.00 91 1013.1
20260906022024 62 0 0.0 2.0 0.00 0.00 0.00 91 1013.1
20260906021547 62 0 0.0 2.0 0.00 0.00 0.00 91 1013.1
20260906021023 62 0 0.0 2.0 0.00 0.00 0.00 91 1013.2
20260906020526 62 0 0.0 2.0 0.00 0.00 0.00 91 1013.1
20260906020059 62 0 0.0 2.0 0.00 0.00 0.00 91 1013.0
20260906015527 62 0 0.0 2.0 0.00 0.00 0.00 91 1013.1
20260906015024 63 0 0.0 2.0 0.00 0.00 0.00 90 1013.0
20260906014548 63 0 0.0 2.0 0.00 0.00 0.00 90 1013.0
20260906014025 63 79 0.0 1.0 0.00 0.00 0.00 90 1013.1
20260906013524 63 0 0.0 1.0 0.00 0.00 0.00 90 1013.0
20260906013102 63 0 0.0 2.0 0.00 0.00 0.00 89 1013.0
20260906012524 63 0 0.0 2.0 0.00 0.00 0.00 89 1013.0
20260906012024 63 0 0.0 0.0 0.00 0.00 0.00 89 1013.0
20260906011547 63 0 0.0 1.0 0.00 0.00 0.00 89 1012.9
20260906011030 63 0 0.0 2.0 0.00 0.00 0.00 88 1012.8
20260906010527 64 0 1.0 2.0 0.00 0.00 0.00 88 1012.8
20260906010054 64 0 0.0 0.0 0.00 0.00 0.00 87 1012.7
20260906005523 64 0 0.0 0.0 0.00 0.00 0.00 87 1012.7
20260906005024 64 0 0.0 0.0 0.00 0.00 0.00 87 1012.6
20260906004546 65 0 0.0 2.0 0.00 0.00 0.00 86 1012.5
20260906004027 65 0 0.0 2.0 0.00 0.00 0.00 86 1012.3
20260906003525 65 31 0.0 2.0 0.00 0.00 0.00 84 1012.4
20260906003042 65 0 0.0 2.0 0.00 0.00 0.00 84 1012.5
20260906002523 66 0 0.0 2.0 0.00 0.00 0.00 84 1012.5
20260906002024 66 31 0.0 2.0 0.00 0.00 0.00 84 1012.3
20260906001544 66 0 0.0 2.0 0.00 0.00 0.00 83 1012.3
20260906001023 67 0 0.0 2.0 0.00 0.00 0.00 81 1012.4
20260906000525 67 40 0.0 2.0 0.00 0.00 0.00 81 1012.5
20260906000058 67 40 0.0 2.0 0.00 0.00 0.00 80 1012.3
20260905235524 67 0 0.0 0.0 0.00 0.00 0.00 80 1012.2
20260905235024 67 0 0.0 2.0 0.00 0.00 0.00 80 1012.1
20260905234558 67 0 0.0 2.0 0.00 0.00 0.00 79 1012.0
20260905234025 68 0 0.0 2.0 0.00 0.00 0.00 78 1011.9
20260905233526 68 0 0.0 2.0 0.00 0.00 0.00 78 1011.9
20260905233045 68 40 0.0 2.0 0.00 0.00 0.00 79 1011.9
20260905232528 68 40 0.0 2.0 0.00 0.00 0.00 79 1011.9
20260905232025 69 40 0.0 1.0 0.00 0.00 0.00 76 1011.8
20260905231544 69 40 0.0 2.0 0.00 0.00 0.00 78 1011.7
20260905231025 70 13 0.0 2.0 0.00 0.00 0.00 77 1011.7
20260905230525 70 0 0.0 2.0 0.00 0.00 0.00 71 1011.7
20260905230047 70 9 0.0 2.0 0.00 0.00 0.00 71 1011.7
20260905225526 71 9 0.0 2.0 0.00 0.00 0.00 72 1011.7
20260905225024 71 0 0.0 2.0 0.00 0.00 0.00 72 1011.7
20260905224549 71 0 0.0 2.0 0.00 0.00 0.00 70 1011.6
20260905224024 72 13 0.0 2.0 0.00 0.00 0.00 68 1011.6
20260905223526 72 25 0.0 2.0 0.00 0.00 0.00 68 1011.5
20260905223047 73 56 0.0 2.0 0.00 0.00 0.00 66 1011.6
20260905222528 73 57 0.0 2.0 0.00 0.00 0.00 65 1011.5
20260905222023 73 67 1.0 2.0 0.00 0.00 0.00 66 1011.4
20260905221553 74 44 0.0 2.0 0.00 0.00 0.00 67 1011.4
20260905221027 74 0 0.0 2.0 0.00 0.00 0.00 65 1011.4
20260905220524 74 0 0.0 2.0 0.00 0.00 0.00 64 1011.4
20260905220051 74 323 0.0 2.0 0.00 0.00 0.00 62 1011.3
20260905215526 74 325 1.0 2.0 0.00 0.00 0.00 62 1011.2
20260905215025 75 36 1.0 3.0 0.00 0.00 0.00 61 1011.2
20260905214542 75 348 1.0 3.0 0.00 0.00 0.00 60 1011.0
20260905214025 75 319 1.0 3.0 0.00 0.00 0.00 62 1011.1
20260905213526 75 306 2.0 3.0 0.00 0.00 0.00 62 1010.9
20260905213050 75 343 1.0 3.0 0.00 0.00 0.00 61 1011.0
20260905212523 75 74 1.0 3.0 0.00 0.00 0.00 62 1011.0
20260905212024 75 331 1.0 2.0 0.00 0.00 0.00 64 1010.9
20260905211546 75 53 0.0 2.0 0.00 0.00 0.00 61 1010.9
20260905211024 75 28 0.0 2.0 0.00 0.00 0.00 62 1010.8
20260905210524 75 55 0.0 2.0 0.00 0.00 0.00 65 1010.7
20260905210056 75 59 0.0 2.0 0.00 0.00 0.00 65 1010.5
20260905205524 75 61 0.0 2.0 0.00 0.00 0.00 66 1010.4
20260905205026 75 76 1.0 2.0 0.00 0.00 0.00 65 1010.4
20260905204543 75 57 0.0 2.0 0.00 0.00 0.00 64 1010.3
20260905204025 75 0 0.0 3.0 0.00 0.00 0.00 63 1010.4
20260905203524 75 321 1.0 3.0 0.00 0.00 0.00 63 1010.4
20260905203108 75 317 1.0 2.0 0.00 0.00 0.00 62 1010.4
20260905202524 75 339 1.0 2.0 0.00 0.00 0.00 63 1010.4
20260905202024 75 57 1.0 2.0 0.00 0.00 0.00 63 1010.5
20260905201546 75 32 0.0 2.0 0.00 0.00 0.00 63 1010.6
20260905201024 75 341 1.0 2.0 0.00 0.00 0.00 65 1010.5
20260905200524 74 16 0.0 2.0 0.00 0.00 0.00 65 1010.6
20260905200044 74 341 0.0 2.0 0.00 0.00 0.00 69 1010.6
20260905195524 74 0 0.0 2.0 0.00 0.00 0.00 68 1010.6
20260905195027 74 0 0.0 2.0 0.00 0.00 0.00 66 1010.6
20260905194542 75 0 0.0 2.0 0.00 0.00 0.00 66 1010.6
20260905194023 75 0 0.0 2.0 0.00 0.00 0.00 63 1010.7
20260905193527 75 339 0.0 2.0 0.00 0.00 0.00 64 1010.6
20260905193046 76 326 1.0 2.0 0.00 0.00 0.00 61 1010.7
20260905192525 76 338 0.0 2.0 0.00 0.00 0.00 61 1010.6
20260905192026 76 343 0.0 2.0 0.00 0.00 0.00 61 1010.7
20260905191547 75 25 0.0 2.0 0.00 0.00 0.00 61 1010.7
20260905191025 76 322 0.0 3.0 0.00 0.00 0.00 61 1010.7
20260905190524 76 347 0.0 3.0 0.00 0.00 0.00 61 1010.7
20260905190047 76 306 1.0 3.0 0.00 0.00 0.00 59 1010.7
20260905185524 76 350 1.0 3.0 0.00 0.00 0.00 60 1010.7
20260905185026 76 81 1.0 3.0 0.00 0.00 0.00 59 1010.7
20260905184601 76 88 1.0 3.0 0.00 0.00 0.00 60 1010.7
20260905184025 75 360 1.0 2.0 0.00 0.00 0.00 62 1010.7
20260905183525 74 341 1.0 3.0 0.00 0.00 0.00 63 1010.8
20260905183047 74 44 1.0 5.0 0.00 0.00 0.00 63 1010.8
20260905182525 74 319 2.0 6.0 0.00 0.00 0.00 62 1010.9
20260905182026 75 69 2.0 7.0 0.00 0.00 0.00 62 1010.8
20260905181546 76 57 2.0 7.0 0.00 0.00 0.00 62 1010.8
20260905181024 76 360 1.0 3.0 0.00 0.00 0.00 61 1010.8
20260905180525 75 59 1.0 3.0 0.00 0.00 0.00 63 1010.8
20260905180042 74 110 1.0 3.0 0.00 0.00 0.00 64 1010.9
20260905175525 74 183 1.0 3.0 0.00 0.00 0.00 65 1011.0
20260905175024 74 12 1.0 5.0 0.00 0.00 0.00 65 1011.1
20260905174551 74 90 2.0 5.0 0.00 0.00 0.00 64 1011.0
20260905174024 75 53 0.0 2.0 0.00 0.00 0.00 64 1011.0
20260905173526 74 68 1.0 4.0 0.00 0.00 0.00 66 1011.0
20260905173046 74 342 1.0 4.0 0.00 0.00 0.00 64 1011.0
20260905172525 74 15 0.0 4.0 0.00 0.00 0.00 67 1011.1
20260905172025 74 314 0.0 4.0 0.00 0.00 0.00 64 1011.1
20260905171557 74 313 2.0 4.0 0.00 0.00 0.00 63 1011.2
20260905171024 75 78 2.0 4.0 0.00 0.00 0.00 61 1011.1
20260905170525 75 44 1.0 4.0 0.00 0.00 0.00 61 1011.1
20260905170046 75 80 1.0 4.0 0.00 0.00 0.00 65 1011.2
20260905165531 75 313 2.0 4.0 0.00 0.00 0.00 64 1011.2
20260905165027 75 315 1.0 3.0 0.00 0.00 0.00 66 1011.2
20260905164551 75 326 0.0 4.0 0.00 0.00 0.00 66 1011.2
20260905164027 74 309 1.0 4.0 0.00 0.00 0.00 65 1011.1
20260905163526 74 69 1.0 4.0 0.00 0.00 0.00 66 1011.1
20260905163053 73 323 1.0 5.0 0.00 0.00 0.00 67 1011.2
20260905162526 73 348 2.0 5.0 0.00 0.00 0.00 64 1011.2
20260905162025 73 223 1.0 2.0 0.00 0.00 0.00 67 1011.2
20260905161544 73 304 1.0 2.0 0.00 0.00 0.00 69 1011.2
20260905161025 72 0 1.0 4.0 0.00 0.00 0.00 69 1011.2
20260905160525 71 336 1.0 4.0 0.00 0.00 0.00 69 1011.2
20260905160042 71 57 1.0 3.0 0.00 0.00 0.00 69 1011.4
20260905155524 71 349 1.0 3.0 0.00 0.00 0.00 68 1011.4
20260905155024 72 55 1.0 3.0 0.00 0.00 0.00 70 1011.3
20260905154603 72 123 1.0 3.0 0.00 0.00 0.00 71 1011.2
20260905154028 72 325 0.0 2.0 0.00 0.00 0.00 70 1011.2
20260905153526 73 59 1.0 4.0 0.00 0.00 0.00 69 1011.3
20260905153047 73 348 1.0 4.0 0.00 0.00 0.00 69 1011.3
20260905152524 72 315 1.0 4.0 0.00 0.00 0.00 71 1011.3
20260905152025 73 321 2.0 4.0 0.00 0.00 0.00 69 1011.4
20260905151544 73 337 1.0 2.0 0.00 0.00 0.00 72 1011.5
20260905151025 72 315 0.0 2.0 0.00 0.00 0.00 72 1011.4
20260905150526 71 352 1.0 3.0 0.00 0.00 0.00 73 1011.5
20260905150045 71 111 1.0 3.0 0.00 0.00 0.00 74 1011.4
20260905145525 70 79 1.0 2.0 0.00 0.00 0.00 73 1011.5
20260905145024 70 63 1.0 3.0 0.00 0.00 0.00 73 1011.5
20260905144547 70 360 1.0 3.0 0.00 0.00 0.00 73 1011.4
20260905144024 70 344 1.0 3.0 0.00 0.00 0.00 74 1011.4
20260905143525 69 336 1.0 3.0 0.00 0.00 0.00 74 1011.4
20260905143052 69 9 0.0 3.0 0.00 0.00 0.00 77 1011.4
20260905142524 69 9 1.0 3.0 0.00 0.00 0.00 75 1011.3
20260905142025 69 74 1.0 4.0 0.00 0.00 0.00 75 1011.2
20260905141553 69 257 2.0 4.0 0.00 0.00 0.00 75 1011.3
20260905141025 69 140 1.0 3.0 0.00 0.00 0.00 77 1011.3
20260905140523 68 333 0.0 3.0 0.00 0.00 0.00 79 1011.2
20260905140055 68 66 1.0 3.0 0.00 0.00 0.00 78 1011.3
20260905135524 68 350 1.0 3.0 0.00 0.00 0.00 79 1011.4
20260905135025 68 0 1.0 3.0 0.00 0.00 0.00 79 1011.3
20260905134547 67 86 1.0 3.0 0.00 0.00 0.00 81 1011.3
20260905134024 67 352 1.0 3.0 0.00 0.00 0.00 81 1011.4
20260905133524 67 36 1.0 3.0 0.00 0.00 0.00 81 1011.4
20260905133047 67 67 1.0 2.0 0.00 0.00 0.00 82 1011.5
20260905132526 67 323 1.0 5.0 0.00 0.00 0.00 83 1011.5
20260905132024 66 352 2.0 5.0 0.00 0.00 0.00 83 1011.4
20260905131542 66 352 1.0 3.0 0.00 0.00 0.00 83 1011.4
20260905131025 66 51 1.0 3.0 0.00 0.00 0.00 85 1011.4
20260905130523 66 12 0.0 2.0 0.00 0.00 0.00 86 1011.5
20260905130049 65 0 0.0 2.0 0.00 0.00 0.00 87 1011.6
20260905125524 65 0 0.0 2.0 0.00 0.00 0.00 87 1011.5
20260905125026 65 334 0.0 3.0 0.00 0.00 0.00 87 1011.5
20260905124544 65 0 1.0 3.0 0.00 0.00 0.00 87 1011.6
20260905124024 65 309 1.0 3.0 0.00 0.00 0.00 87 1011.6
20260905123523 64 51 0.0 2.0 0.00 0.00 0.00 88 1011.7
20260905123046 64 15 0.0 2.0 0.00 0.00 0.00 90 1011.8
20260905122524 63 341 0.0 2.0 0.00 0.00 0.00 91 1011.7
20260905122025 63 24 0.0 2.0 0.00 0.00 0.00 91 1011.7
20260905121544 63 0 0.0 2.0 0.00 0.00 0.00 92 1011.7
20260905121026 62 0 0.0 2.0 0.00 0.00 0.00 92 1011.7
20260905120525 62 0 0.0 2.0 0.00 0.00 0.00 93 1011.6
20260905120050 62 343 0.0 2.0 0.00 0.00 0.00 94 1011.6
20260905115525 61 55 0.0 2.0 0.00 0.00 0.00 95 1011.5
20260905115026 61 92 0.0 2.0 0.00 0.00 0.00 96 1011.5
20260905114603 60 92 0.0 2.0 0.00 0.00 0.00 96 1011.4
20260905114027 60 92 0.0 2.0 0.00 0.00 0.00 96 1011.4
20260905113523 60 92 0.0 2.0 0.00 0.00 0.00 96 1011.2
20260905113049 59 0 1.0 1.0 0.00 0.00 0.00 96 1011.1
20260905112525 59 92 1.0 2.0 0.00 0.00 0.00 95 1011.0
20260905112030 59 92 1.0 2.0 0.00 0.00 0.00 95 1011.2
20260905111619 59 95 1.0 2.0 0.00 0.00 0.00 95 1011.1
20260905111026 59 90 1.0 2.0 0.00 0.00 0.00 95 1011.1
20260905110526 59 90 0.0 2.0 0.00 0.00 0.00 95 1011.1
20260905110053 59 0 0.0 2.0 0.00 0.00 0.00 95 1011.0
20260905105526 59 0 0.0 2.0 0.00 0.00 0.00 95 1011.0
20260905105029 59 0 0.0 2.0 0.00 0.00 0.00 95 1011.0
20260905104606 59 0 0.0 2.0 0.00 0.00 0.00 95 1010.8
20260905104025 59 0 0.0 2.0 0.00 0.00 0.00 95 1010.8
20260905103524 59 90 0.0 2.0 0.00 0.00 0.00 95 1010.7
20260905103048 59 0 0.0 2.0 0.00 0.00 0.00 95 1010.6
20260905102526 59 0 0.0 2.0 0.00 0.00 0.00 95 1010.6
20260905102024 59 0 0.0 2.0 0.00 0.00 0.00 95 1010.6
20260905101551 59 0 0.0 2.0 0.00 0.00 0.00 95 1010.5
20260905101024 59 0 0.0 2.0 0.00 0.00 0.00 94 1010.4
20260905100524 59 0 0.0 2.0 0.00 0.00 0.00 95 1010.4
20260905100045 59 90 0.0 2.0 0.00 0.00 0.00 95 1010.4
20260905095525 59 90 1.0 2.0 0.00 0.00 0.00 95 1010.4
20260905095025 59 90 1.0 2.0 0.00 0.00 0.00 94 1010.3
20260905094638 59 90 1.0 1.0 0.00 0.00 0.00 94 1010.4
20260905094023 59 90 0.0 2.0 0.00 0.00 0.00 95 1010.4
20260905093527 59 0 0.0 2.0 0.00 0.00 0.00 95 1010.4
20260905093052 59 0 0.0 2.0 0.00 0.00 0.00 95 1010.3
20260905092526 59 90 0.0 2.0 0.00 0.00 0.00 94 1010.4
20260905092028 59 90 0.0 2.0 0.00 0.00 0.00 94 1010.2
20260905091548 60 90 0.0 2.0 0.00 0.00 0.00 94 1010.2
20260905091023 60 0 0.0 2.0 0.00 0.00 0.00 94 1010.2
20260905090525 60 0 0.0 2.0 0.00 0.00 0.00 94 1010.3
20260905090047 60 0 0.0 2.0 0.00 0.00 0.00 94 1010.3
20260905085524 60 0 0.0 2.0 0.00 0.18 0.00 94 1010.4
20260905085031 60 0 0.0 2.0 0.00 0.18 0.00 94 1010.4
20260905084555 60 90 1.0 2.0 0.00 0.18 0.00 94 1010.3
20260905084024 60 90 1.0 2.0 0.00 0.18 0.00 94 1010.4
20260905083524 60 0 0.0 2.0 0.00 0.18 0.00 94 1010.3
20260905083048 60 0 0.0 2.0 0.00 0.18 0.00 94 1010.2
20260905082524 60 0 0.0 2.0 0.00 0.18 0.00 93 1010.2
20260905082024 60 90 0.0 2.0 0.00 0.18 0.00 93 1010.3
20260905081546 60 90 0.0 2.0 0.00 0.18 0.00 94 1010.2
20260905081024 60 0 0.0 2.0 0.00 0.18 0.00 93 1010.3
20260905080527 60 90 0.0 2.0 0.00 0.18 0.00 93 1010.3
20260905075537 60 88 1.0 2.0 0.00 0.57 0.00 92 1010.4
20260905075023 61 57 0.0 2.0 0.00 0.57 0.00 93 1010.4
20260905074556 61 0 0.0 2.0 0.00 0.57 0.00 93 1010.3
20260905074026 61 26 0.0 2.0 0.00 0.57 0.00 93 1010.3
20260905073524 60 39 0.0 2.0 0.00 0.57 0.00 93 1010.4
20260905073105 60 0 0.0 2.0 0.00 0.57 0.00 93 1010.4
20260905072529 61 0 0.0 2.0 0.00 0.57 0.00 92 1010.4
20260905072024 61 39 0.0 2.0 0.00 0.57 0.00 92 1010.4
20260905071549 61 0 0.0 2.0 0.00 0.57 0.00 92 1010.4
20260905071023 61 0 0.0 2.0 0.00 0.57 0.00 93 1010.4
20260905070524 61 42 0.0 2.0 0.00 0.57 0.00 92 1010.4
20260905070048 61 47 0.0 2.0 0.00 0.57 0.00 91 1010.5
20260905065527 61 0 0.0 2.0 0.00 0.58 0.00 92 1010.6
20260905065024 60 48 0.0 2.0 0.00 0.58 0.00 92 1010.6
20260905064546 60 0 0.0 2.0 0.00 0.58 0.00 92 1010.7
20260905064028 61 67 1.0 2.0 0.00 0.58 0.00 92 1010.7
20260905063524 61 42 0.0 2.0 0.00 0.58 0.00 93 1010.7
20260905063049 60 40 0.0 2.0 0.00 0.58 0.00 94 1010.7
20260905062525 60 0 0.0 2.0 0.00 0.58 0.00 93 1010.7
20260905062024 60 64 0.0 2.0 0.00 0.58 0.00 93 1010.7
20260905061600 61 64 0.0 2.0 0.00 0.58 0.00 93 1010.7
20260905061023 61 64 0.0 2.0 0.00 0.58 0.00 94 1010.8
20260905060524 61 76 0.0 2.0 0.00 0.58 0.00 94 1010.8
20260905060104 60 78 0.0 2.0 0.00 0.58 0.00 94 1011.0
20260905055524 60 0 0.0 2.0 0.00 0.58 0.00 93 1011.1
20260905055024 60 78 1.0 2.0 0.00 0.58 0.00 93 1011.1
20260905054555 61 78 1.0 2.0 0.00 0.58 0.00 94 1011.1
20260905054024 61 0 0.0 2.0 0.00 0.58 0.00 94 1011.1
20260905053524 61 0 0.0 2.0 0.00 0.58 0.00 94 1011.2
20260905053054 61 78 0.0 2.0 0.00 0.58 0.00 94 1011.4
20260905052525 61 78 0.0 2.0 0.00 0.58 0.00 93 1011.4
20260905052026 61 55 0.0 2.0 0.00 0.58 0.00 93 1011.4
20260905051606 61 46 0.0 2.0 0.00 0.58 0.00 93 1011.5
20260905051022 61 352 0.0 2.0 0.00 0.58 0.00 93 1011.5
20260905050524 61 344 0.0 2.0 0.00 0.58 0.00 93 1011.4
20260905050049 61 0 0.0 2.0 0.00 0.58 0.00 93 1011.4
20260905045525 62 344 0.0 2.0 0.00 0.58 0.00 93 1011.5
20260905045025 61 0 0.0 2.0 0.00 0.58 0.00 94 1011.5
20260905044545 61 0 0.0 2.0 0.00 0.58 0.00 94 1011.6
20260905044024 61 0 0.0 2.0 0.00 0.58 0.00 94 1011.6
20260905043525 61 0 0.0 2.0 0.00 0.58 0.00 94 1011.7
20260905043042 61 0 0.0 2.0 0.00 0.58 0.00 94 1011.7
20260905042523 61 0 0.0 2.0 0.00 0.58 0.00 94 1011.7
20260905042026 61 0 0.0 1.0 0.00 0.58 0.00 94 1011.7
20260905041541 62 0 0.0 2.0 0.00 0.58 0.00 94 1011.8
20260905041024 62 0 0.0 2.0 0.00 0.58 0.00 94 1011.8
20260905040524 62 0 0.0 2.0 0.00 0.58 0.00 94 1011.8